Vinton, IA

11:25 AM CST on February 28, 2017 (GMT -0600)
Vinton-Veterans Memorial

Weather History for KVTI - October, 2013

Change the Weather History Date:

Saturday, October 19, 2013

  Actual Average Record
Temperature  
Mean Temperature 45 °F -  
Max Temperature 54 °F 58 °F 85 °F (1953)
Min Temperature 36 °F 35 °F 17 °F (1972)
Degree Days  
Heating Degree Days 20    
Moisture  
Dew Point 34 °F    
Average Humidity 71    
Maximum Humidity 88    
Minimum Humidity 44    
Precipitation  
Precipitation 0.00 in - - ()
Sea Level Pressure  
Sea Level Pressure 29.84 in    
Wind  
Wind Speed 7 mph (West)    
Max Wind Speed 21 mph    
Max Gust Speed 29 mph    
Visibility 10 miles    
Events Rain    
Averages and records for this station are not official NWS values.
T = Trace of Precipitation, MM = Missing Value Source: NWS Daily Summary

Daily Weather History Graph

Daily Weather History Graph

Search for Another Location

Airport or City:

Trip Planner

Search our weather history database for the weather conditions in past years. The results will help you decide how hot, cold, wet, or windy it might be!

Date:

Astronomy

Oct. 19, 2013 Rise Set
Actual Time 7:25 AM CDT 6:19 PM CDT
Civil Twilight 6:57 AM CDT 6:47 PM CDT
Nautical Twilight 6:24 AM CDT 7:20 PM CDT
Astronomical Twilight 5:52 AM CDT 7:52 PM CDT
Moon 6:46 PM CDT (10/19) 8:04 AM CDT (10/19)
Length of Visible Light 11h 50m
Length of Day
10h 53m
Waxing Gibbous, 99% of the Moon is Illuminated
Oct 19
Waxing Gibbous
Oct 26
Last Quarter
Nov 3
New
Nov 9
First Quarter
Nov 17
Full

Hourly Weather History & Observations

Time (CDT) Temp. Windchill Dew Point Humidity Pressure Visibility Wind Dir Wind Speed Gust Speed Precip Events Conditions
12:15 AM 40.6 °F 36.7 °F 30.2 °F 66% 29.93 in 10.0 mi SW 5.8 mph - N/A   Clear
12:35 AM 40.6 °F 35.4 °F 30.2 °F 66% 29.93 in 10.0 mi WSW 8.1 mph - N/A   Clear
12:55 AM 40.1 °F 34.7 °F 30.4 °F 68% 29.92 in 10.0 mi WSW 8.1 mph - N/A   Clear
1:15 AM 39.4 °F 34.5 °F 30.2 °F 70% 29.92 in 10.0 mi WSW 6.9 mph - N/A   Clear
1:35 AM 39.4 °F 34.5 °F 30.6 °F 71% 29.91 in 10.0 mi WSW 6.9 mph - N/A   Scattered Clouds
1:55 AM 39.4 °F 33.8 °F 30.7 °F 71% 29.91 in 10.0 mi WSW 8.1 mph - N/A   Clear
2:15 AM 39.4 °F 34.5 °F 31.1 °F 72% 29.90 in 10.0 mi WSW 6.9 mph - N/A   Clear
2:35 AM 39.4 °F 35.2 °F 31.1 °F 72% 29.89 in 10.0 mi WSW 5.8 mph - N/A   Clear
2:55 AM 37.0 °F 32.4 °F 29.5 °F 74% 29.88 in 10.0 mi WSW 5.8 mph - N/A   Clear
3:15 AM 39.4 °F 34.5 °F 31.3 °F 73% 29.88 in 10.0 mi WSW 6.9 mph - N/A   Clear
3:35 AM 39.4 °F 34.5 °F 30.7 °F 71% 29.87 in 10.0 mi WSW 6.9 mph - N/A   Clear
3:55 AM 39.4 °F 34.5 °F 30.2 °F 70% 29.87 in 10.0 mi WSW 6.9 mph - N/A   Clear
4:15 AM 39.4 °F 34.5 °F 30.7 °F 71% 29.87 in 10.0 mi WSW 6.9 mph - N/A   Scattered Clouds
4:35 AM 39.4 °F 34.5 °F 32.0 °F 75% 29.87 in 10.0 mi WSW 6.9 mph - N/A   Scattered Clouds
4:55 AM 39.4 °F 34.5 °F 32.0 °F 75% 29.86 in 10.0 mi West 6.9 mph - N/A   Scattered Clouds
5:15 AM 39.4 °F 34.5 °F 32.2 °F 75% 29.86 in 10.0 mi West 6.9 mph - N/A   Scattered Clouds
5:35 AM 39.4 °F 35.2 °F 32.5 °F 76% 29.86 in 10.0 mi WSW 5.8 mph - N/A   Clear
5:55 AM 37.8 °F 33.3 °F 31.8 °F 79% 29.86 in 10.0 mi WSW 5.8 mph - N/A   Clear
6:15 AM 37.6 °F 32.3 °F 31.8 °F 80% 29.86 in 10.0 mi WSW 6.9 mph - N/A   Clear
6:35 AM 39.4 °F 35.2 °F 32.9 °F 78% 29.86 in 10.0 mi WSW 5.8 mph - N/A   Clear
6:55 AM 39.4 °F 34.5 °F 32.7 °F 77% 29.86 in 10.0 mi WSW 6.9 mph - N/A   Clear
7:15 AM 37.9 °F 33.5 °F 31.6 °F 78% 29.86 in 10.0 mi WSW 5.8 mph - N/A   Clear
7:35 AM 36.9 °F 33.1 °F 31.3 °F 80% 29.86 in 10.0 mi West 4.6 mph - N/A   Clear
7:55 AM 36.9 °F 32.2 °F 31.6 °F 81% 29.86 in 10.0 mi West 5.8 mph - N/A   Clear
8:15 AM 37.6 °F 33.1 °F 31.8 °F 80% 29.86 in 10.0 mi WSW 5.8 mph - N/A   Clear
8:35 AM 39.4 °F 34.5 °F 32.0 °F 75% 29.86 in 10.0 mi SW 6.9 mph - N/A   Clear
8:55 AM 39.4 °F 32.7 °F 31.6 °F 74% 29.86 in 10.0 mi WSW 10.4 mph - N/A   Clear
9:15 AM 40.6 °F 34.8 °F 31.8 °F 71% 29.86 in 10.0 mi WSW 9.2 mph - N/A   Clear
9:35 AM 42.8 °F 38.0 °F 32.4 °F 67% 29.86 in 10.0 mi WSW 8.1 mph - N/A   Clear
9:55 AM 44.6 °F 40.2 °F 32.9 °F 64% 29.85 in 10.0 mi WSW 8.1 mph - N/A   Clear
10:15 AM 46.9 °F - 34.3 °F 62% 29.84 in 10.0 mi WSW 9.2 mph - N/A   Clear
10:35 AM 47.8 °F - 33.8 °F 58% 29.83 in 10.0 mi WSW 6.9 mph - N/A   Scattered Clouds
10:55 AM 48.2 °F - 33.4 °F 57% 29.83 in 10.0 mi WSW 10.4 mph 16.1 mph N/A   Scattered Clouds
11:15 AM 49.1 °F - 34.0 °F 56% 29.82 in 10.0 mi WSW 8.1 mph - N/A   Scattered Clouds
11:35 AM 49.5 °F - 34.0 °F 55% 29.82 in 10.0 mi SW 9.2 mph - N/A   Clear
11:55 AM 49.5 °F - 33.1 °F 53% 29.81 in 10.0 mi WSW 9.2 mph - N/A   Clear
1:55 PM 46.9 °F - 35.1 °F 63% 29.79 in 10.0 mi West 11.5 mph 21.9 mph N/A   Mostly Cloudy
2:15 PM 46.9 °F - 35.1 °F 63% 29.79 in 10.0 mi West 12.7 mph 20.7 mph N/A   Light Drizzle
2:35 PM 49.5 °F - 36.9 °F 62% 29.79 in 10.0 mi West 10.4 mph 17.3 mph N/A   Scattered Clouds
2:55 PM 50.5 °F - 36.0 °F 57% 29.78 in 10.0 mi WSW 12.7 mph 20.7 mph N/A   Clear
3:15 PM 52.5 °F - 35.2 °F 52% 29.78 in 10.0 mi West 16.1 mph 20.7 mph N/A   Scattered Clouds
3:35 PM 52.0 °F - 34.9 °F 52% 29.77 in 10.0 mi West 16.1 mph 23.0 mph N/A   Mostly Cloudy
3:55 PM 54.5 °F - 35.4 °F 49% 29.77 in 10.0 mi WSW 15.0 mph 25.3 mph N/A   Scattered Clouds
4:15 PM 53.8 °F - 34.9 °F 49% 29.77 in 10.0 mi West 15.0 mph 25.3 mph N/A   Scattered Clouds
4:35 PM 54.5 °F - 34.7 °F 47% 29.77 in 10.0 mi West 12.7 mph 23.0 mph N/A   Clear
4:55 PM 54.5 °F - 32.9 °F 44% 29.78 in 10.0 mi West 12.7 mph 20.7 mph N/A   Clear
5:15 PM 54.3 °F - 34.2 °F 47% 29.79 in 10.0 mi NW 20.7 mph 28.8 mph N/A   Scattered Clouds
5:35 PM 46.9 °F - 39.6 °F 76% 29.80 in 10.0 mi NNW 11.5 mph 19.6 mph N/A   Light Drizzle
5:55 PM 46.9 °F - 40.1 °F 77% 29.80 in 10.0 mi NW 9.2 mph - N/A   Scattered Clouds
6:15 PM 46.9 °F - 39.9 °F 77% 29.80 in 10.0 mi WNW 4.6 mph - N/A Rain Light Rain
6:35 PM 45.9 °F 44.6 °F 39.2 °F 78% 29.80 in 10.0 mi West 3.5 mph - N/A   Scattered Clouds
6:55 PM 44.2 °F - 37.8 °F 78% 29.80 in 10.0 mi Calm Calm - N/A   Scattered Clouds
7:15 PM 43.5 °F 41.9 °F 37.0 °F 78% 29.80 in 10.0 mi West 3.5 mph - N/A   Clear
7:35 PM 42.8 °F 41.1 °F 36.9 °F 80% 29.80 in 10.0 mi WSW 3.5 mph - N/A   Scattered Clouds
7:55 PM 41.4 °F 39.4 °F 36.1 °F 82% 29.81 in 10.0 mi SW 3.5 mph - N/A   Scattered Clouds
8:15 PM 41.0 °F - 36.5 °F 84% 29.81 in 10.0 mi Calm Calm - N/A   Scattered Clouds
8:35 PM 39.6 °F - 35.8 °F 86% 29.81 in 10.0 mi Calm Calm - N/A   Scattered Clouds
8:55 PM 39.6 °F - 36.0 °F 87% 29.82 in 10.0 mi Calm Calm - N/A   Clear
9:15 PM 40.1 °F - 36.7 °F 88% 29.82 in 10.0 mi Calm Calm - N/A   Clear
9:35 PM 39.4 °F 35.2 °F 36.0 °F 88% 29.83 in 10.0 mi WNW 5.8 mph - N/A   Clear
9:55 PM 39.4 °F 33.8 °F 35.2 °F 85% 29.84 in 10.0 mi WNW 8.1 mph - N/A   Clear
10:15 PM 39.4 °F 35.2 °F 34.9 °F 84% 29.85 in 10.0 mi NW 5.8 mph - N/A   Clear
10:35 PM 39.4 °F 36.1 °F 34.0 °F 81% 29.85 in 10.0 mi NNW 4.6 mph - N/A   Clear
10:55 PM 39.4 °F 35.2 °F 33.3 °F 79% 29.85 in 10.0 mi NNW 5.8 mph - N/A   Clear
11:15 PM 36.9 °F 34.3 °F 31.3 °F 80% 29.85 in 10.0 mi North 3.5 mph - N/A   Clear
11:35 PM 36.9 °F 33.1 °F 31.8 °F 82% 29.85 in 10.0 mi NNW 4.6 mph - N/A   Clear
11:55 PM 36.9 °F 34.3 °F 31.8 °F 82% 29.85 in 10.0 mi North 3.5 mph - N/A   Clear